This is the latest recevied weather packets stored in our database for station/object KK6LVQ-13. If no packets are shown the sender has not sent any weather packets the latest 10 day(s).
| Time | Temp. | Humidity | Pressure | Rain* | Wind** | Luminosity | Snow |
|---|---|---|---|---|---|---|---|
| 1777571214 | 15.56° C | 72% | 1020.5 hPa | 0 mm | - | 632 W/m² | - |
| 1777570910 | 15.56° C | 74% | 1020.6 hPa | 0 mm | - | 623 W/m² | - |
| 1777570606 | 15° C | 74% | 1020.4 hPa | 0 mm | - | 612 W/m² | - |
| 1777570303 | 15° C | 76% | 1020.4 hPa | 0 mm | - | 601 W/m² | - |
| 1777569998 | 15° C | 78% | 1020.5 hPa | 0 mm | - | 589 W/m² | - |
| 1777569695 | 14.44° C | 80% | 1020.5 hPa | 0 mm | - | 577 W/m² | - |
| 1777569390 | 13.89° C | 81% | 1020.8 hPa | 0 mm | - | 566 W/m² | - |
| 1777569087 | 13.89° C | 80% | 1020.6 hPa | 0 mm | - | 554 W/m² | - |
| 1777568784 | 13.33° C | 81% | 1020.6 hPa | 0 mm | - | 539 W/m² | - |
| 1777568482 | 12.78° C | 83% | 1020.8 hPa | 0 mm | - | 525 W/m² | - |
| 1777568178 | 12.78° C | 83% | 1020.8 hPa | 0 mm | - | 516 W/m² | - |
| 1777567875 | 12.22° C | 84% | 1020.8 hPa | 0 mm | - | 500 W/m² | - |
| 1777567571 | 12.22° C | 84% | 1020.6 hPa | 0 mm | - | 488 W/m² | - |
| 1777567269 | 12.22° C | 85% | 1020.9 hPa | 0 mm | - | 473 W/m² | - |
| 1777566967 | 12.22° C | 85% | 1020.7 hPa | 0 mm | - | 458 W/m² | - |
| 1777566664 | 11.67° C | 86% | 1020.8 hPa | 0 mm | - | 445 W/m² | - |
| 1777566362 | 11.67° C | 86% | 1020.7 hPa | 0 mm | - | 430 W/m² | - |
| 1777566059 | 11.11° C | 87% | 1020.7 hPa | 0 mm | - | 416 W/m² | - |
| 1777565754 | 11.11° C | 88% | 1020.7 hPa | 0 mm | - | 393 W/m² | - |
| 1777565451 | 10.56° C | 89% | 1020.9 hPa | 0 mm | - | 366 W/m² | - |
| 1777565147 | 10.56° C | 90% | 1020.8 hPa | 0 mm | - | 328 W/m² | - |
| 1777564844 | 10.56° C | 91% | 1020.8 hPa | 0 mm | - | 303 W/m² | - |
| 1777564538 | 10.56° C | 91% | 1021 hPa | 0 mm | - | 271 W/m² | - |
| 1777564233 | 10° C | 92% | 1021 hPa | 0 mm | - | 241 W/m² | - |
| 1777563930 | 10° C | 92% | 1021 hPa | 0 mm | - | 218 W/m² | - |
* Rain latest hour (hover to see other rain measurements)
** Current wind speed in m/s (hover to see current wind gust speed)